Tracking 34401 objects as of 17-Jun-2026
HD Live streaming from Space Station
objects crossing your sky now

STARLINK-1133

Track STARLINK-1133 now!
10-day predictions
STARLINK-1133 is classified as:


NORAD ID: 45064
Int'l Code: 2020-006W
Perigee: 462.3 km
Apogee: 469.3 km
Inclination: 53.2 °
Period: 93.8 minutes
Semi major axis: 6836 km
RCS: Unknown
Launch date: January 29, 2020
Source: United States (US)
Launch site: AIR FORCE EASTERN TEST RANGE (AFETR)
Your satellite tracking list
Your tracking list is empty




NASA's NSSDC Master Catalog

Two Line Element Set (TLE):
1 45064U 20006W   26168.14487040  .00034100  00000-0  97234-3 0  9994
2 45064  53.1566 154.4669 0005121  34.1427 325.9905 15.35765602352128
Source of the keplerian elements: AFSPC